| time (UTC) | temp F | wind direction | speed knots | gust knots | rain 1hr in | rain 24hr in | rain mn in | humidity % | barometer mb |
| 20260506232524 | 75 | 319 | 8.7 | 11.3 | 0.00 | 0.00 | 0.00 | 32 | 1011.6 |
| 20260506232025 | 76 | 301 | 5.2 | 11.3 | 0.00 | 0.00 | 0.00 | 33 | 1011.6 |
| 20260506231024 | 76 | 325 | 7.8 | 13.0 | 0.00 | 0.00 | 0.00 | 33 | 1011.8 |
| 20260506230524 | 76 | 304 | 8.7 | 13.0 | 0.00 | 0.00 | 0.00 | 32 | 1011.8 |
| 20260506230019 | 76 | 314 | 9.6 | 15.6 | 0.00 | 0.00 | 0.00 | 32 | 1011.8 |
| 20260506225020 | 76 | 316 | 7.8 | 12.2 | 0.00 | 0.00 | 0.00 | 34 | 1011.8 |
| 20260506224514 | 76 | 312 | 9.6 | 13.0 | 0.00 | 0.00 | 0.00 | 33 | 1011.8 |
| 20260506224014 | 76 | 302 | 9.6 | 13.0 | 0.00 | 0.00 | 0.00 | 33 | 1011.9 |
| 20260506223509 | 76 | 309 | 8.7 | 11.3 | 0.00 | 0.00 | 0.00 | 34 | 1011.9 |
| 20260506223003 | 76 | 290 | 6.1 | 11.3 | 0.00 | 0.00 | 0.00 | 33 | 1011.9 |
| 20260506222503 | 77 | 324 | 8.7 | 13.0 | 0.00 | 0.00 | 0.00 | 34 | 1011.9 |
| 20260506222004 | 77 | 311 | 7.8 | 13.0 | 0.00 | 0.00 | 0.00 | 34 | 1012.0 |
| 20260506221458 | 77 | 321 | 8.7 | 16.5 | 0.00 | 0.00 | 0.00 | 35 | 1011.8 |
| 20260506220952 | 77 | 293 | 9.6 | 16.5 | 0.00 | 0.00 | 0.00 | 34 | 1011.9 |
| 20260506220446 | 78 | 316 | 7.8 | 13.0 | 0.00 | 0.00 | 0.00 | 33 | 1011.8 |
| 20260506215943 | 78 | 298 | 9.6 | 14.8 | 0.00 | 0.00 | 0.00 | 33 | 1011.8 |
| 20260506215436 | 79 | 302 | 9.6 | 14.8 | 0.00 | 0.00 | 0.00 | 31 | 1011.8 |
| 20260506214936 | 79 | 325 | 7.0 | 13.0 | 0.00 | 0.00 | 0.00 | 32 | 1011.8 |
| 20260506213925 | 78 | 319 | 7.8 | 15.6 | 0.00 | 0.00 | 0.00 | 32 | 1011.8 |
| 20260506213424 | 78 | 258 | 9.6 | 16.5 | 0.00 | 0.00 | 0.00 | 31 | 1011.8 |
| 20260506211420 | 79 | 286 | 8.7 | 16.5 | 0.00 | 0.00 | 0.00 | 31 | 1011.8 |
| 20260506210914 | 79 | 295 | 9.6 | 14.8 | 0.00 | 0.00 | 0.00 | 31 | 1011.9 |
| 20260506210407 | 79 | 301 | 8.7 | 14.8 | 0.00 | 0.00 | 0.00 | 33 | 1011.8 |
| 20260506205902 | 79 | 318 | 8.7 | 15.6 | 0.00 | 0.00 | 0.00 | 32 | 1011.8 |
| 20260506205403 | 79 | 281 | 9.6 | 15.6 | 0.00 | 0.00 | 0.00 | 31 | 1011.9 |
| 20260506204857 | 79 | 292 | 9.6 | 15.6 | 0.00 | 0.00 | 0.00 | 31 | 1011.8 |
| 20260506204352 | 79 | 276 | 10.4 | 15.6 | 0.00 | 0.00 | 0.00 | 32 | 1011.8 |
| 20260506203851 | 79 | 305 | 7.8 | 13.0 | 0.00 | 0.00 | 0.00 | 33 | 1011.8 |
| 20260506203352 | 78 | 293 | 7.0 | 13.0 | 0.00 | 0.00 | 0.00 | 32 | 1011.9 |
| 20260506202346 | 79 | 285 | 11.3 | 18.2 | 0.00 | 0.00 | 0.00 | 30 | 1011.8 |
| 20260506201847 | 79 | 298 | 9.6 | 20.0 | 0.00 | 0.00 | 0.00 | 32 | 1011.9 |
| 20260506201341 | 79 | 315 | 7.0 | 20.0 | 0.00 | 0.00 | 0.00 | 31 | 1012.0 |
| 20260506200836 | 79 | 280 | 11.3 | 16.5 | 0.00 | 0.00 | 0.00 | 30 | 1012.0 |
| 20260506200330 | 78 | 290 | 8.7 | 16.5 | 0.00 | 0.00 | 0.00 | 31 | 1012.0 |
| 20260506195830 | 78 | 304 | 9.6 | 16.5 | 0.00 | 0.00 | 0.00 | 30 | 1012.0 |
| 20260506194818 | 78 | 288 | 7.8 | 17.4 | 0.00 | 0.00 | 0.00 | 32 | 1012.1 |
| 20260506194319 | 78 | 294 | 7.8 | 16.5 | 0.00 | 0.00 | 0.00 | 33 | 1011.9 |
| 20260506193314 | 77 | 269 | 8.7 | 18.2 | 0.00 | 0.00 | 0.00 | 33 | 1012.1 |
| 20260506192808 | 77 | 308 | 7.8 | 16.5 | 0.00 | 0.00 | 0.00 | 33 | 1012.1 |
| 20260506192305 | 77 | 266 | 9.6 | 16.5 | 0.00 | 0.00 | 0.00 | 33 | 1012.1 |
| 20260506191802 | 77 | 289 | 7.8 | 16.5 | 0.00 | 0.00 | 0.00 | 33 | 1012.3 |
| 20260506191259 | 78 | 273 | 6.1 | 13.0 | 0.00 | 0.00 | 0.00 | 34 | 1012.1 |
| 20260506190251 | 77 | 271 | 9.6 | 18.2 | 0.00 | 0.00 | 0.00 | 34 | 1012.4 |
| 20260506185745 | 77 | 285 | 7.0 | 16.5 | 0.00 | 0.00 | 0.00 | 34 | 1012.4 |
| 20260506185239 | 77 | 289 | 9.6 | 16.5 | 0.00 | 0.00 | 0.00 | 31 | 1012.1 |
| 20260506184733 | 77 | 292 | 9.6 | 16.5 | 0.00 | 0.00 | 0.00 | 34 | 1012.0 |
| 20260506183728 | 76 | 304 | 10.4 | 16.5 | 0.00 | 0.00 | 0.00 | 34 | 1012.3 |
| 20260506183228 | 76 | 260 | 9.6 | 16.5 | 0.00 | 0.00 | 0.00 | 35 | 1012.3 |
| 20260506182722 | 76 | 318 | 7.8 | 16.5 | 0.00 | 0.00 | 0.00 | 34 | 1012.4 |
| 20260506182223 | 76 | 296 | 9.6 | 16.5 | 0.00 | 0.00 | 0.00 | 35 | 1012.4 |
| 20260506181217 | 76 | 302 | 10.4 | 15.6 | 0.00 | 0.00 | 0.00 | 35 | 1012.4 |
| 20260506180717 | 76 | 307 | 8.7 | 13.9 | 0.00 | 0.00 | 0.00 | 34 | 1012.4 |
| 20260506180218 | 76 | 296 | 8.7 | 15.6 | 0.00 | 0.00 | 0.00 | 34 | 1012.5 |
| 20260506175717 | 77 | 296 | 8.7 | 15.6 | 0.00 | 0.00 | 0.00 | 34 | 1012.4 |
| 20260506175214 | 77 | 321 | 7.8 | 13.9 | 0.00 | 0.00 | 0.00 | 35 | 1012.3 |
| 20260506173706 | 76 | 284 | 8.7 | 13.9 | 0.00 | 0.00 | 0.00 | 36 | 1012.6 |
| 20260506172206 | 75 | 340 | 3.5 | 6.1 | 0.00 | 0.00 | 0.00 | 38 | 1012.5 |
| 20260506171706 | 75 | 297 | 3.5 | 6.1 | 0.00 | 0.00 | 0.00 | 39 | 1012.6 |
| 20260506171200 | 74 | 297 | 3.5 | 7.8 | 0.00 | 0.00 | 0.00 | 38 | 1012.6 |
| 20260506170701 | 74 | 324 | 3.5 | 7.8 | 0.00 | 0.00 | 0.00 | 38 | 1012.7 |
| 20260506170155 | 74 | 29 | 2.6 | 7.0 | 0.00 | 0.00 | 0.00 | 40 | 1012.7 |
| 20260506165149 | 73 | 323 | 4.3 | 7.0 | 0.00 | 0.00 | 0.00 | 38 | 1012.8 |
| 20260506164644 | 72 | 8 | 1.7 | 6.1 | 0.00 | 0.00 | 0.00 | 40 | 1012.8 |
| 20260506164145 | 71 | 37 | 1.7 | 7.0 | 0.00 | 0.00 | 0.00 | 42 | 1012.9 |
| 20260506163644 | 70 | 266 | 1.7 | 7.0 | 0.00 | 0.00 | 0.00 | 43 | 1012.9 |
| 20260506163145 | 70 | 105 | 4.3 | 7.0 | 0.00 | 0.00 | 0.00 | 49 | 1013.0 |
| 20260506162140 | 69 | 38 | 2.6 | 5.2 | 0.00 | 0.00 | 0.00 | 44 | 1013.1 |
| 20260506161635 | 69 | 297 | 1.7 | 5.2 | 0.00 | 0.00 | 0.00 | 44 | 1013.2 |
| 20260506160629 | 67 | 340 | 2.6 | 5.2 | 0.00 | 0.00 | 0.00 | 46 | 1013.1 |
| 20260506160123 | 67 | 331 | 1.7 | 4.3 | 0.00 | 0.00 | 0.00 | 46 | 1013.2 |
| 20260506155624 | 66 | 323 | 3.5 | 4.3 | 0.00 | 0.00 | 0.00 | 47 | 1013.2 |
| 20260506155118 | 66 | 38 | 2.6 | 6.1 | 0.00 | 0.00 | 0.00 | 47 | 1013.2 |
| 20260506154113 | 64 | 321 | 3.5 | 7.0 | 0.00 | 0.00 | 0.00 | 48 | 1013.3 |
| 20260506152603 | 62 | 328 | 1.7 | 5.2 | 0.00 | 0.00 | 0.00 | 52 | 1013.5 |
| 20260506151603 | 60 | 321 | 3.5 | 7.0 | 0.00 | 0.00 | 0.00 | 53 | 1013.5 |
| 20260506151058 | 60 | 315 | 5.2 | 6.1 | 0.00 | 0.00 | 0.00 | 53 | 1013.5 |
| 20260506150553 | 59 | 302 | 4.3 | 7.0 | 0.00 | 0.00 | 0.00 | 53 | 1013.6 |
| 20260506150047 | 59 | 314 | 4.3 | 7.8 | 0.00 | 0.00 | 0.00 | 54 | 1013.6 |
| 20260506145535 | 58 | 336 | 5.2 | 8.7 | 0.00 | 0.00 | 0.00 | 54 | 1013.7 |
| 20260506144029 | 56 | 352 | 4.3 | 6.1 | 0.00 | 0.00 | 0.00 | 58 | 1013.7 |
| 20260506143024 | 56 | 351 | 2.6 | 5.2 | 0.00 | 0.00 | 0.00 | 58 | 1014.0 |
| 20260506142519 | 56 | 311 | 3.5 | 5.2 | 0.00 | 0.00 | 0.00 | 57 | 1013.7 |
| 20260506142013 | 56 | 304 | 2.6 | 5.2 | 0.00 | 0.00 | 0.00 | 58 | 1014.0 |
| 20260506141513 | 55 | 312 | 1.7 | 4.3 | 0.00 | 0.00 | 0.00 | 57 | 1014.0 |
| 20260506141014 | 56 | 310 | 0.9 | 5.2 | 0.00 | 0.00 | 0.00 | 57 | 1013.9 |
| 20260506140513 | 56 | 317 | 2.6 | 7.0 | 0.00 | 0.00 | 0.00 | 56 | 1014.0 |
| 20260506135503 | 55 | 338 | 4.3 | 7.0 | 0.00 | 0.00 | 0.00 | 57 | 1013.7 |
| 20260506134959 | 55 | 347 | 1.7 | 4.3 | 0.00 | 0.00 | 0.00 | 58 | 1013.7 |
| 20260506134457 | 55 | 335 | 2.6 | 6.1 | 0.00 | 0.00 | 0.00 | 58 | 1013.7 |
| 20260506133958 | 54 | 335 | 3.5 | 7.0 | 0.00 | 0.00 | 0.00 | 58 | 1013.7 |
| 20260506133452 | 54 | 325 | 3.5 | 7.0 | 0.00 | 0.00 | 0.00 | 59 | 1013.7 |
| 20260506132951 | 55 | 355 | 5.2 | 7.0 | 0.00 | 0.00 | 0.00 | 58 | 1013.7 |
| 20260506132446 | 54 | 354 | 4.3 | 7.0 | 0.00 | 0.00 | 0.00 | 59 | 1013.6 |
| 20260506131940 | 54 | 351 | 2.6 | 5.2 | 0.00 | 0.00 | 0.00 | 59 | 1013.6 |
| 20260506130930 | 54 | 20 | 2.6 | 4.3 | 0.00 | 0.00 | 0.00 | 61 | 1013.7 |
| 20260506130425 | 54 | 15 | 1.7 | 4.3 | 0.00 | 0.00 | 0.00 | 60 | 1013.6 |
| 20260506125924 | 54 | 333 | 2.6 | 7.0 | 0.00 | 0.00 | 0.00 | 60 | 1013.7 |
| 20260506124911 | 54 | 356 | 2.6 | 6.1 | 0.00 | 0.00 | 0.00 | 59 | 1013.7 |
| 20260506124413 | 54 | 16 | 2.6 | 5.2 | 0.00 | 0.00 | 0.00 | 60 | 1013.7 |
| 20260506123907 | 53 | 337 | 1.7 | 3.5 | 0.00 | 0.00 | 0.00 | 62 | 1013.4 |
| 20260506123407 | 53 | 39 | 1.7 | 2.6 | 0.00 | 0.00 | 0.00 | 64 | 1013.4 |
| 20260506122907 | 53 | 343 | 0.9 | 4.3 | 0.00 | 0.00 | 0.00 | 63 | 1013.5 |
| 20260506122407 | 54 | 323 | 1.7 | 7.0 | 0.00 | 0.00 | 0.00 | 61 | 1013.3 |
| 20260506121900 | 55 | 322 | 3.5 | 7.0 | 0.00 | 0.00 | 0.00 | 59 | 1013.4 |
| 20260506121359 | 55 | 349 | 3.5 | 6.1 | 0.00 | 0.00 | 0.00 | 58 | 1013.3 |
| 20260506120854 | 55 | 345 | 1.7 | 5.2 | 0.00 | 0.00 | 0.00 | 58 | 1013.3 |
| 20260506120349 | 55 | 333 | 1.7 | 4.3 | 0.00 | 0.00 | 0.00 | 58 | 1013.3 |
| 20260506114843 | 55 | 340 | 2.6 | 4.3 | 0.00 | 0.00 | 0.00 | 59 | 1013.4 |
| 20260506114338 | 55 | 342 | 0.9 | 4.3 | 0.00 | 0.00 | 0.00 | 59 | 1013.3 |
| 20260506113838 | 56 | 350 | 2.6 | 4.3 | 0.00 | 0.00 | 0.00 | 58 | 1013.4 |
| 20260506113332 | 56 | 349 | 1.7 | 4.3 | 0.00 | 0.00 | 0.00 | 57 | 1013.4 |
| 20260506112826 | 56 | 32 | 1.7 | 4.3 | 0.00 | 0.00 | 0.00 | 57 | 1013.4 |
| 20260506112322 | 56 | 349 | 1.7 | 4.3 | 0.00 | 0.00 | 0.00 | 58 | 1013.3 |
| 20260506111315 | 55 | 358 | 1.7 | 3.5 | 0.00 | 0.00 | 0.00 | 58 | 1013.4 |
| 20260506110815 | 55 | 335 | 1.7 | 3.5 | 0.00 | 0.00 | 0.00 | 60 | 1013.5 |
| 20260506110311 | 54 | 24 | 1.7 | 3.5 | 0.00 | 0.00 | 0.00 | 62 | 1013.4 |
| 20260506105808 | 55 | 338 | 0.9 | 5.2 | 0.00 | 0.00 | 0.00 | 60 | 1013.2 |
| 20260506104756 | 56 | 323 | 2.6 | 4.3 | 0.00 | 0.00 | 0.00 | 58 | 1013.2 |
| 20260506104258 | 56 | 338 | 1.7 | 3.5 | 0.00 | 0.00 | 0.00 | 57 | 1013.4 |
| 20260506103751 | 57 | 356 | 1.7 | 5.2 | 0.00 | 0.00 | 0.00 | 56 | 1013.3 |
| 20260506102739 | 57 | 349 | 1.7 | 5.2 | 0.00 | 0.00 | 0.00 | 57 | 1013.3 |
| 20260506102233 | 57 | 327 | 3.5 | 6.1 | 0.00 | 0.00 | 0.00 | 56 | 1013.2 |
| 20260506101227 | 57 | 25 | 2.6 | 5.2 | 0.00 | 0.00 | 0.00 | 56 | 1013.2 |
| 20260506100222 | 58 | 335 | 1.7 | 3.5 | 0.00 | 0.00 | 0.00 | 56 | 1013.2 |
| 20260506094716 | 58 | 331 | 3.5 | 6.1 | 0.00 | 0.00 | 0.00 | 55 | 1013.2 |
| 20260506094217 | 58 | 6 | 2.6 | 5.2 | 0.00 | 0.00 | 0.00 | 55 | 1013.2 |
| 20260506093711 | 58 | 345 | 3.5 | 5.2 | 0.00 | 0.00 | 0.00 | 55 | 1013.3 |
| 20260506093212 | 58 | 4 | 1.7 | 3.5 | 0.00 | 0.00 | 0.00 | 55 | 1013.3 |
| 20260506092712 | 58 | 32 | 1.7 | 6.1 | 0.00 | 0.00 | 0.00 | 56 | 1013.4 |
| 20260506092213 | 58 | 348 | 0.9 | 6.1 | 0.00 | 0.00 | 0.00 | 55 | 1013.2 |
| 20260506091706 | 58 | 348 | 4.3 | 6.1 | 0.00 | 0.00 | 0.00 | 55 | 1013.2 |
| 20260506091206 | 58 | 7 | 1.7 | 5.2 | 0.00 | 0.00 | 0.00 | 55 | 1013.2 |
| 20260506090155 | 59 | 355 | 2.6 | 5.2 | 0.00 | 0.00 | 0.00 | 54 | 1013.3 |
| 20260506085655 | 59 | 338 | 1.7 | 7.0 | 0.00 | 0.00 | 0.00 | 54 | 1013.2 |
| 20260506084649 | 59 | 345 | 3.5 | 5.2 | 0.00 | 0.00 | 0.00 | 55 | 1013.2 |
| 20260506084150 | 59 | 354 | 1.7 | 4.3 | 0.00 | 0.00 | 0.00 | 56 | 1013.2 |
| 20260506083650 | 59 | 345 | 0.9 | 7.0 | 0.00 | 0.00 | 0.00 | 56 | 1013.1 |
| 20260506083144 | 60 | 319 | 4.3 | 7.0 | 0.00 | 0.00 | 0.00 | 54 | 1013.2 |
| 20260506082644 | 60 | 335 | 3.5 | 6.1 | 0.00 | 0.00 | 0.00 | 54 | 1013.1 |
| 20260506082144 | 60 | 336 | 4.3 | 6.1 | 0.00 | 0.00 | 0.00 | 54 | 1013.1 |
| 20260506081138 | 59 | 349 | 0.9 | 5.2 | 0.00 | 0.00 | 0.00 | 55 | 1013.1 |
| 20260506080633 | 60 | 35 | 2.6 | 5.2 | 0.00 | 0.00 | 0.00 | 54 | 1013.2 |
| 20260506080133 | 60 | 15 | 1.7 | 4.3 | 0.00 | 0.00 | 0.00 | 54 | 1013.0 |
| 20260506073113 | 61 | 69 | 0.9 | 3.5 | 0.00 | 0.00 | 0.00 | 52 | 1012.8 |
| 20260506072607 | 61 | 347 | 1.7 | 3.5 | 0.00 | 0.00 | 0.00 | 52 | 1012.7 |
| 20260506072107 | 61 | 329 | 1.7 | 3.5 | 0.00 | 0.00 | 0.00 | 52 | 1012.7 |
| 20260506070602 | 61 | 21 | 1.7 | 3.5 | 0.00 | 0.00 | 0.00 | 53 | 1012.5 |
| 20260506061524 | 65 | 5 | 1.7 | 4.3 | 0.00 | 0.00 | 0.00 | 48 | 1012.1 |
| 20260506061019 | 65 | 357 | 2.6 | 3.5 | 0.00 | 0.00 | 0.00 | 48 | 1012.0 |
| 20260506051014 | 70 | 324 | 3.5 | 7.8 | 0.00 | 0.00 | 0.00 | 42 | 1012.0 |
| 20260506050513 | 71 | 314 | 3.5 | 7.8 | 0.00 | 0.00 | 0.00 | 42 | 1011.9 |
| 20260506044956 | 71 | 336 | 1.7 | 5.2 | 0.00 | 0.00 | 0.00 | 42 | 1011.8 |
| 20260506044450 | 71 | 339 | 2.6 | 5.2 | 0.00 | 0.00 | 0.00 | 42 | 1011.8 |
| 20260506043439 | 70 | 31 | 0.9 | 3.5 | 0.00 | 0.00 | 0.00 | 43 | 1011.8 |
| 20260506042932 | 70 | 34 | 0.9 | 2.6 | 0.00 | 0.00 | 0.00 | 43 | 1011.5 |
| 20260506042434 | 70 | 23 | 0.9 | 3.5 | 0.00 | 0.00 | 0.00 | 42 | 1011.6 |
| 20260506041928 | 70 | 32 | 0.0 | 3.5 | 0.00 | 0.00 | 0.00 | 42 | 1011.6 |
| 20260506040917 | 72 | 31 | 0.9 | 3.5 | 0.00 | 0.00 | 0.00 | 40 | 1011.4 |
| 20260506035907 | 73 | 342 | 0.0 | 6.1 | 0.00 | 0.00 | 0.00 | 38 | 1011.3 |
| 20260506035406 | 73 | 75 | 0.9 | 2.6 | 0.00 | 0.00 | 0.00 | 38 | 1011.3 |
| 20260506034900 | 73 | 314 | 0.9 | 5.2 | 0.00 | 0.00 | 0.00 | 38 | 1011.2 |
| 20260506034355 | 74 | 301 | 2.6 | 5.2 | 0.00 | 0.00 | 0.00 | 37 | 1010.9 |
| 20260506033851 | 74 | 72 | 1.7 | 7.0 | 0.00 | 0.00 | 0.00 | 37 | 1010.9 |
| 20260506032310 | 74 | 287 | 0.9 | 7.0 | 0.00 | 0.00 | 0.00 | 37 | 1010.8 |
| 20260506031806 | 75 | 27 | 4.3 | 9.6 | 0.00 | 0.00 | 0.00 | 36 | 1010.7 |
| 20260506031301 | 75 | 331 | 2.6 | 9.6 | 0.00 | 0.00 | 0.00 | 36 | 1010.4 |
| 20260506030258 | 76 | 309 | 3.5 | 7.0 | 0.00 | 0.00 | 0.00 | 35 | 1010.3 |
| 20260506025753 | 76 | 288 | 1.7 | 13.0 | 0.00 | 0.00 | 0.00 | 35 | 1010.1 |
| 20260506025246 | 77 | 304 | 4.3 | 13.0 | 0.00 | 0.00 | 0.00 | 33 | 1010.1 |
| 20260506024236 | 78 | 267 | 4.3 | 7.8 | 0.00 | 0.00 | 0.00 | 33 | 1009.9 |
| 20260506023733 | 78 | 263 | 4.3 | 7.8 | 0.00 | 0.00 | 0.00 | 32 | 1010.0 |
| 20260506023226 | 79 | 262 | 3.5 | 11.3 | 0.00 | 0.00 | 0.00 | 32 | 1010.0 |
| 20260506022721 | 79 | 260 | 4.3 | 11.3 | 0.00 | 0.00 | 0.00 | 32 | 1009.9 |
| 20260506022217 | 80 | 284 | 4.3 | 13.9 | 0.00 | 0.00 | 0.00 | 31 | 1010.0 |
| 20260506021711 | 80 | 264 | 7.0 | 13.9 | 0.00 | 0.00 | 0.00 | 30 | 1009.8 |
| 20260506021207 | 80 | 295 | 5.2 | 16.5 | 0.00 | 0.00 | 0.00 | 30 | 1009.9 |
| 20260506020701 | 80 | 245 | 7.0 | 16.5 | 0.00 | 0.00 | 0.00 | 30 | 1009.8 |
| 20260506020155 | 81 | 310 | 7.0 | 12.2 | 0.00 | 0.00 | 0.00 | 29 | 1009.8 |
| 20260506015144 | 82 | 266 | 6.1 | 9.6 | 0.00 | 0.00 | 0.00 | 29 | 1009.7 |
| 20260506014642 | 82 | 271 | 6.1 | 10.4 | 0.00 | 0.00 | 0.00 | 29 | 1009.6 |
| 20260506014135 | 82 | 278 | 4.3 | 10.4 | 0.00 | 0.00 | 0.00 | 29 | 1009.5 |
| 20260506013631 | 82 | 317 | 5.2 | 11.3 | 0.00 | 0.00 | 0.00 | 28 | 1009.6 |
| 20260506013126 | 82 | 287 | 6.1 | 11.3 | 0.00 | 0.00 | 0.00 | 28 | 1009.7 |
| 20260506012621 | 82 | 281 | 6.1 | 10.4 | 0.00 | 0.00 | 0.00 | 28 | 1009.6 |
| 20260506012117 | 83 | 321 | 4.3 | 9.6 | 0.00 | 0.00 | 0.00 | 29 | 1009.5 |
| 20260506011611 | 83 | 272 | 5.2 | 9.6 | 0.00 | 0.00 | 0.00 | 28 | 1009.8 |
| 20260506010605 | 84 | 304 | 4.3 | 9.6 | 0.00 | 0.00 | 0.00 | 27 | 1009.7 |
| 20260506010100 | 83 | 304 | 4.3 | 9.6 | 0.00 | 0.00 | 0.00 | 27 | 1009.6 |
| 20260506005555 | 84 | 300 | 2.6 | 6.1 | 0.00 | 0.00 | 0.00 | 28 | 1009.7 |
| 20260506004544 | 84 | 290 | 4.3 | 6.1 | 0.00 | 0.00 | 0.00 | 30 | 1009.7 |
| 20260506004039 | 84 | 287 | 1.7 | 7.8 | 0.00 | 0.00 | 0.00 | 28 | 1009.7 |
| 20260506003533 | 83 | 129 | 2.6 | 7.8 | 0.00 | 0.00 | 0.00 | 26 | 1009.7 |
| 20260506003034 | 84 | 248 | 0.9 | 4.3 | 0.00 | 0.00 | 0.00 | 28 | 1009.6 |
| 20260506002529 | 83 | 140 | 2.6 | 6.1 | 0.00 | 0.00 | 0.00 | 27 | 1009.8 |
| 20260506002030 | 84 | 128 | 3.5 | 6.1 | 0.00 | 0.00 | 0.00 | 27 | 1009.8 |
| 20260506001532 | 84 | 185 | 2.6 | 6.1 | 0.00 | 0.00 | 0.00 | 28 | 1009.8 |
| 20260506000525 | 84 | 238 | 5.2 | 7.8 | 0.00 | 0.00 | 0.00 | 26 | 1009.9 |
| 20260505235521 | 84 | 280 | 3.5 | 8.7 | 0.00 | 0.00 | 0.00 | 25 | 1009.9 |
| 20260505235019 | 84 | 188 | 3.5 | 8.7 | 0.00 | 0.00 | 0.00 | 27 | 1009.8 |
| 20260505234513 | 85 | 279 | 3.5 | 8.7 | 0.00 | 0.00 | 0.00 | 27 | 1010.0 |
| 20260505234013 | 84 | 247 | 3.5 | 7.0 | 0.00 | 0.00 | 0.00 | 26 | 1009.9 |
| 20260505233008 | 84 | 210 | 2.6 | 7.0 | 0.00 | 0.00 | 0.00 | 26 | 1009.8 |